�������l�o���
Date,Time,MP-1(��Sv/h),MP-2(��Sv/h),MP-3(��Sv/h),MP-4(��Sv/h),MP-5(��Sv/h),MP-6(��Sv/h),MP-7(��Sv/h),MP-8(��Sv/h),����,����(m/s),���J
2020/08/27,00:00,0.713,1.024,0.646,1.251,0.908,0.398,0.699,0.653,��,4.1,��
2020/08/27,00:10,0.712,1.023,0.647,1.253,0.908,0.400,0.698,0.653,��,4.4,��
2020/08/27,00:20,0.713,1.025,0.646,1.252,0.908,0.399,0.698,0.652,��,4.2,��
2020/08/27,00:30,0.713,1.023,0.645,1.250,0.908,0.399,0.698,0.653,��,4.3,��
2020/08/27,00:40,0.714,1.024,0.644,1.250,0.909,0.399,0.698,0.652,��,3.6,��
2020/08/27,00:50,0.712,1.021,0.644,1.249,0.907,0.398,0.699,0.652,��,3.5,��
2020/08/27,01:00,0.714,1.024,0.644,1.252,0.906,0.398,0.697,0.653,��쐼,3.0,��
2020/08/27,01:10,0.714,1.025,0.647,1.254,0.909,0.400,0.698,0.652,��쐼,1.7,��
2020/08/27,01:20,0.716,1.026,0.647,1.251,0.907,0.400,0.697,0.653,��쐼,0.9,��
2020/08/27,01:30,0.714,1.026,0.646,1.251,0.906,0.399,0.698,0.653,-,CALM,��
2020/08/27,01:40,0.715,1.024,0.645,1.252,0.907,0.399,0.697,0.654,���k��,0.9,��
2020/08/27,01:50,0.713,1.023,0.645,1.253,0.907,0.399,0.698,0.652,-,CALM,��
2020/08/27,02:00,0.714,1.025,0.645,1.253,0.909,0.399,0.698,0.654,�k��,1.5,��
2020/08/27,02:10,0.714,1.025,0.645,1.250,0.907,0.400,0.699,0.654,��,0.6,��
2020/08/27,02:20,0.714,1.025,0.644,1.250,0.906,0.398,0.698,0.651,���쐼,0.8,��
2020/08/27,02:30,0.714,1.023,0.645,1.254,0.907,0.399,0.698,0.652,-,CALM,��
2020/08/27,02:40,0.715,1.023,0.648,1.251,0.907,0.398,0.697,0.652,-,CALM,��
2020/08/27,02:50,0.714,1.024,0.646,1.255,0.907,0.399,0.699,0.652,�k,0.6,��
2020/08/27,03:00,0.715,1.026,0.645,1.251,0.906,0.398,0.699,0.653,��,0.9,��
2020/08/27,03:10,0.715,1.022,0.645,1.251,0.907,0.399,0.697,0.653,���k��,0.9,��
2020/08/27,03:20,0.713,1.025,0.647,1.254,0.906,0.399,0.697,0.653,�k��,1.7,��
2020/08/27,03:30,0.714,1.024,0.645,1.252,0.909,0.399,0.698,0.653,�k��,1.2,��
2020/08/27,03:40,0.715,1.024,0.646,1.252,0.906,0.399,0.699,0.653,�k�k��,1.2,��
2020/08/27,03:50,0.714,1.025,0.646,1.253,0.909,0.399,0.698,0.651,�k�k��,2.0,��
2020/08/27,04:00,0.716,1.024,0.646,1.251,0.909,0.398,0.700,0.654,�k�k��,2.3,��
2020/08/27,04:10,0.713,1.025,0.646,1.254,0.908,0.399,0.699,0.652,�k�k��,2.3,��
2020/08/27,04:20,0.715,1.024,0.646,1.253,0.906,0.399,0.699,0.653,�k,1.5,��
2020/08/27,04:30,0.715,1.023,0.646,1.252,0.909,0.398,0.698,0.652,�k,1.5,��
2020/08/27,04:40,0.714,1.020,0.645,1.253,0.907,0.399,0.699,0.652,�k�k��,1.7,��
2020/08/27,04:50,0.713,1.022,0.645,1.252,0.906,0.401,0.700,0.654,�k�k��,0.8,��
2020/08/27,05:00,0.714,1.022,0.647,1.251,0.905,0.398,0.697,0.652,�k,0.9,��
2020/08/27,05:10,0.716,1.022,0.645,1.252,0.906,0.399,0.699,0.653,�k�k��,1.2,��
2020/08/27,05:20,0.714,1.022,0.645,1.252,0.908,0.398,0.698,0.652,�k�k��,1.2,��
2020/08/27,05:30,0.715,1.023,0.643,1.252,0.907,0.399,0.699,0.651,�k��,0.9,��
2020/08/27,05:40,0.714,1.023,0.642,1.253,0.907,0.399,0.696,0.652,�k��,1.2,��
2020/08/27,05:50,0.715,1.022,0.645,1.251,0.907,0.397,0.698,0.653,���k��,1.2,��
2020/08/27,06:00,0.715,1.022,0.645,1.251,0.906,0.398,0.699,0.653,��,1.1,��
2020/08/27,06:10,0.712,1.023,0.645,1.252,0.904,0.399,0.697,0.653,-,CALM,��
2020/08/27,06:20,0.714,1.021,0.642,1.250,0.908,0.399,0.697,0.653,-,CALM,��
2020/08/27,06:30,0.714,1.021,0.643,1.252,0.904,0.399,0.698,0.654,�k�k��,0.9,��
2020/08/27,06:40,0.712,1.021,0.645,1.253,0.906,0.398,0.698,0.655,��쓌,0.6,��
2020/08/27,06:50,0.712,1.020,0.642,1.251,0.905,0.397,0.699,0.653,���쓌,0.8,��
2020/08/27,07:00,0.715,1.019,0.642,1.251,0.906,0.398,0.698,0.654,��쓌,0.9,��
2020/08/27,07:10,0.714,1.020,0.643,1.253,0.905,0.399,0.699,0.654,�쓌,1.2,��
2020/08/27,07:20,0.715,1.019,0.644,1.250,0.903,0.398,0.700,0.651,��쓌,1.2,��
2020/08/27,07:30,0.715,1.021,0.643,1.252,0.903,0.399,0.699,0.653,��쓌,2.8,��
2020/08/27,07:40,0.714,1.020,0.645,1.251,0.907,0.399,0.699,0.653,�쓌,2.2,��
2020/08/27,07:50,0.712,1.021,0.642,1.251,0.904,0.399,0.699,0.652,���쓌,2.6,��
2020/08/27,08:00,0.713,1.020,0.644,1.253,0.907,0.398,0.701,0.652,�쓌,2.2,��
2020/08/27,08:10,0.715,1.022,0.643,1.251,0.905,0.399,0.699,0.655,���쓌,2.3,��
2020/08/27,08:20,0.714,1.021,0.643,1.253,0.903,0.399,0.699,0.654,���쓌,2.5,��
2020/08/27,08:30,0.714,1.018,0.643,1.254,0.905,0.398,0.700,0.654,�쓌,3.1,��
2020/08/27,08:40,0.714,1.018,0.643,1.252,0.905,0.398,0.700,0.650,��쓌,3.2,��
2020/08/27,08:50,0.713,1.019,0.645,1.251,0.905,0.398,0.701,0.652,��쓌,4.3,��
2020/08/27,09:00,0.714,1.020,0.642,1.252,0.904,0.399,0.700,0.651,��쓌,5.0,��
2020/08/27,09:10,0.713,1.016,0.644,1.250,0.907,0.398,0.702,0.651,��쓌,5.4,��
2020/08/27,09:20,0.714,1.017,0.644,1.250,0.905,0.396,0.699,0.651,��쓌,5.7,��
2020/08/27,09:30,0.715,1.015,0.644,1.252,0.906,0.397,0.700,0.651,��쓌,5.6,��
2020/08/27,09:40,0.716,1.018,0.643,1.253,0.907,0.396,0.699,0.651,��쓌,7.3,��
2020/08/27,09:50,0.712,1.013,0.644,1.253,0.906,0.397,0.698,0.652,��쓌,8.0,��
2020/08/27,10:00,0.714,1.016,0.642,1.250,0.905,0.398,0.699,0.653,��쓌,7.8,��
2020/08/27,10:10,0.715,1.016,0.644,1.253,0.906,0.398,0.697,0.652,��쓌,8.1,��
2020/08/27,10:20,0.715,1.015,0.643,1.249,0.906,0.398,0.699,0.652,��쓌,8.6,��
2020/08/27,10:30,0.714,1.017,0.646,1.252,0.906,0.399,0.698,0.652,��쓌,9.1,��
2020/08/27,10:40,0.714,1.016,0.643,1.252,0.907,0.397,0.697,0.651,��쓌,9.8,��
2020/08/27,10:50,0.715,1.015,0.644,1.250,0.905,0.398,0.698,0.651,��쓌,9.4,��
2020/08/27,11:00,0.714,1.016,0.643,1.251,0.906,0.398,0.697,0.651,��쓌,9.1,��
2020/08/27,11:10,0.714,1.015,0.646,1.250,0.906,0.399,0.699,0.651,��쓌,9.8,��
2020/08/27,11:20,0.714,1.017,0.645,1.251,0.907,0.398,0.699,0.652,��쓌,9.9,��
2020/08/27,11:30,0.715,1.017,0.643,1.254,0.907,0.400,0.699,0.651,��쓌,10.5,��
2020/08/27,11:40,0.714,1.017,0.645,1.253,0.907,0.399,0.698,0.652,��쓌,10.5,��
2020/08/27,11:50,0.714,1.018,0.644,1.252,0.905,0.399,0.699,0.651,��쓌,10.8,��
2020/08/27,12:00,0.716,1.020,0.644,1.249,0.908,0.399,0.698,0.652,��쓌,12.0,��
2020/08/27,12:10,0.715,1.018,0.645,1.250,0.908,0.399,0.699,0.652,��쓌,11.7,��
2020/08/27,12:20,0.714,1.021,0.645,1.250,0.908,0.400,0.699,0.650,��쓌,10.6,��
2020/08/27,12:30,0.714,1.021,0.645,1.247,0.909,0.399,0.699,0.653,��쓌,10.8,��
2020/08/27,12:40,0.716,1.022,0.645,1.253,0.908,0.398,0.697,0.652,��쓌,11.7,��
2020/08/27,12:50,0.714,1.022,0.646,1.251,0.908,0.399,0.699,0.653,��쓌,11.8,��
2020/08/27,13:00,0.714,1.022,0.644,1.252,0.907,0.399,0.700,0.652,��쓌,8.9,��
2020/08/27,13:10,0.716,1.019,0.644,1.253,0.909,0.400,0.701,0.653,��쓌,11.1,��
2020/08/27,13:20,0.714,1.022,0.644,1.250,0.908,0.398,0.700,0.654,��쓌,10.2,��
2020/08/27,13:30,0.715,1.018,0.644,1.254,0.909,0.397,0.700,0.654,��쓌,9.3,��
2020/08/27,13:40,0.715,1.021,0.646,1.254,0.909,0.396,0.702,0.654,��쓌,11.4,��
2020/08/27,13:50,0.714,1.019,0.646,1.253,0.908,0.397,0.700,0.655,��쓌,10.2,��
2020/08/27,14:00,0.716,1.019,0.644,1.254,0.908,0.397,0.702,0.655,��쓌,11.7,��
2020/08/27,14:10,0.716,1.018,0.643,1.253,0.910,0.398,0.702,0.656,��쓌,10.3,��
2020/08/27,14:20,0.716,1.020,0.643,1.253,0.907,0.398,0.703,0.653,��쓌,11.6,��
2020/08/27,14:30,0.716,1.020,0.644,1.254,0.907,0.399,0.700,0.653,��,12.2,��
2020/08/27,14:40,0.715,1.020,0.643,1.253,0.905,0.399,0.702,0.655,��,10.5,��
2020/08/27,14:50,0.716,1.020,0.647,1.255,0.908,0.398,0.702,0.652,��쓌,12.4,��
2020/08/27,15:00,0.715,1.020,0.644,1.251,0.910,0.398,0.702,0.654,��,11.6,��
2020/08/27,15:10,0.715,1.020,0.645,1.252,0.910,0.399,0.701,0.653,��쓌,11.3,��
2020/08/27,15:20,0.714,1.021,0.645,1.253,0.911,0.399,0.702,0.651,��쓌,11.3,��
2020/08/27,15:30,0.714,1.024,0.643,1.254,0.913,0.399,0.702,0.652,��쓌,11.6,��
2020/08/27,15:40,0.715,1.021,0.646,1.251,0.911,0.399,0.702,0.652,��쓌,10.2,��
2020/08/27,15:50,0.715,1.026,0.645,1.252,0.911,0.398,0.702,0.653,��쓌,11.7,��
2020/08/27,16:00,0.714,1.022,0.642,1.250,0.914,0.398,0.700,0.652,��쓌,9.7,��
2020/08/27,16:10,0.715,1.024,0.644,1.251,0.912,0.397,0.700,0.652,��,9.5,��
2020/08/27,16:20,0.714,1.022,0.645,1.254,0.912,0.398,0.699,0.651,��,10.2,��
2020/08/27,16:30,0.714,1.023,0.643,1.254,0.910,0.398,0.700,0.650,��,8.6,��
2020/08/27,16:40,0.714,1.021,0.643,1.256,0.910,0.397,0.700,0.654,��,9.0,��
2020/08/27,16:50,0.715,1.022,0.644,1.254,0.910,0.399,0.699,0.652,��쓌,8.8,��
2020/08/27,17:00,0.713,1.024,0.643,1.257,0.910,0.398,0.700,0.653,��,7.8,��
2020/08/27,17:10,0.715,1.024,0.645,1.255,0.909,0.398,0.700,0.653,��,7.4,��
2020/08/27,17:20,0.712,1.023,0.644,1.255,0.910,0.399,0.699,0.652,��,6.9,��
2020/08/27,17:30,0.714,1.022,0.645,1.253,0.909,0.401,0.699,0.653,��,6.9,��
2020/08/27,17:40,0.715,1.024,0.644,1.252,0.907,0.400,0.697,0.653,��,7.1,��
2020/08/27,17:50,0.715,1.022,0.644,1.253,0.909,0.399,0.699,0.653,��,7.1,��
2020/08/27,18:00,0.712,1.022,0.643,1.252,0.909,0.399,0.699,0.653,��,6.5,��
2020/08/27,18:10,0.714,1.022,0.644,1.254,0.908,0.400,0.699,0.651,��,6.5,��
2020/08/27,18:20,0.713,1.021,0.644,1.253,0.909,0.399,0.700,0.652,��,8.4,��
2020/08/27,18:30,0.714,1.021,0.644,1.254,0.908,0.399,0.701,0.652,��,8.0,��
2020/08/27,18:40,0.714,1.022,0.644,1.251,0.908,0.399,0.698,0.652,��,7.9,��
2020/08/27,18:50,0.714,1.022,0.644,1.252,0.907,0.399,0.699,0.653,��,8.0,��
2020/08/27,19:00,0.715,1.021,0.644,1.254,0.908,0.399,0.699,0.652,��,7.2,��
2020/08/27,19:10,0.716,1.022,0.642,1.252,0.907,0.398,0.700,0.652,��,7.8,��
2020/08/27,19:20,0.715,1.022,0.645,1.253,0.908,0.398,0.701,0.652,��,7.2,��
2020/08/27,19:30,0.716,1.024,0.646,1.253,0.910,0.400,0.700,0.653,��,7.4,��
2020/08/27,19:40,0.716,1.022,0.645,1.252,0.909,0.399,0.699,0.652,��,7.5,��
2020/08/27,19:50,0.714,1.024,0.645,1.254,0.910,0.399,0.701,0.653,��,7.0,��
2020/08/27,20:00,0.716,1.023,0.646,1.252,0.910,0.400,0.700,0.652,��,6.8,��
2020/08/27,20:10,0.716,1.024,0.644,1.253,0.907,0.399,0.700,0.651,��,6.0,��
2020/08/27,20:20,0.715,1.026,0.644,1.254,0.911,0.398,0.699,0.654,��,5.9,��
2020/08/27,20:30,0.714,1.025,0.646,1.253,0.909,0.399,0.699,0.653,��,5.4,��
2020/08/27,20:40,0.713,1.025,0.646,1.251,0.911,0.399,0.701,0.653,��,4.2,��
2020/08/27,20:50,0.715,1.026,0.646,1.253,0.911,0.399,0.700,0.652,��,4.7,��
2020/08/27,21:00,0.715,1.026,0.645,1.253,0.912,0.399,0.700,0.652,��,5.1,��
2020/08/27,21:10,0.715,1.027,0.645,1.252,0.912,0.399,0.700,0.652,��,4.5,��
2020/08/27,21:20,0.715,1.025,0.645,1.253,0.910,0.399,0.700,0.651,��,5.4,��
2020/08/27,21:30,0.715,1.024,0.648,1.253,0.910,0.400,0.700,0.654,��쓌,6.9,��
2020/08/27,21:40,0.717,1.025,0.647,1.254,0.908,0.400,0.699,0.652,��,5.6,��
2020/08/27,21:50,0.714,1.023,0.644,1.254,0.909,0.398,0.700,0.653,��,6.0,��
2020/08/27,22:00,0.717,1.025,0.646,1.253,0.911,0.399,0.701,0.653,��,4.8,��
2020/08/27,22:10,0.714,1.024,0.646,1.254,0.908,0.399,0.700,0.653,��쐼,3.5,��
2020/08/27,22:20,0.713,1.025,0.645,1.254,0.909,0.400,0.701,0.652,��쐼,3.7,��
2020/08/27,22:30,0.714,1.025,0.646,1.250,0.911,0.399,0.700,0.653,��,3.5,��
2020/08/27,22:40,0.714,1.025,0.645,1.255,0.911,0.401,0.699,0.653,��,4.0,��
2020/08/27,22:50,0.715,1.022,0.646,1.253,0.909,0.398,0.700,0.654,��,5.7,��
2020/08/27,23:00,0.714,1.024,0.645,1.253,0.910,0.399,0.700,0.652,��,6.9,��
2020/08/27,23:10,0.716,1.023,0.647,1.252,0.909,0.400,0.701,0.653,��,6.8,��
2020/08/27,23:20,0.714,1.024,0.645,1.253,0.910,0.399,0.700,0.653,��,8.1,��
2020/08/27,23:30,0.714,1.025,0.644,1.252,0.910,0.399,0.700,0.652,��,7.5,��
2020/08/27,23:40,0.715,1.024,0.645,1.254,0.909,0.398,0.701,0.654,��,7.6,��
2020/08/27,23:50,0.715,1.025,0.646,1.251,0.909,0.400,0.700,0.656,��,6.8,��
